CW5084 Weather Reports


Display with metric or nautical units.
time (UTC)temp
F
wind
direction
speed
MPH
gust
MPH
rain 1hr
in
rain 24hr
in
rain mn
in
humidity
%
barometer
mb
20260504045055 49 206 5.0 7.0 0.00 0.00 0.00 57 1008.6
20260504044055 49 207 7.0 9.0 0.00 0.00 0.00 55 1008.6
20260504043025 50 208 6.0 10.0 0.00 0.00 0.00 53 1008.6
20260504042055 51 211 6.0 10.0 0.00 0.00 0.00 52 1008.7
20260504041025 51 212 4.0 13.0 0.00 0.00 0.00 53 1008.7
20260504040055 51 219 7.0 11.0 0.00 0.00 0.00 52 1008.8
20260504035055 51 214 5.0 11.0 0.00 0.00 0.00 54 1008.6
20260504034055 51 214 4.0 12.0 0.00 0.00 0.00 53 1008.7
20260504033055 51 213 6.0 13.0 0.00 0.00 0.00 53 1008.8
20260504031055 50 234 4.0 9.0 0.00 0.00 0.00 55 1008.8
20260504030054 50 220 4.0 7.0 0.00 0.00 0.00 55 1008.9
20260504025055 50 221 5.0 9.0 0.00 0.00 0.00 56 1009.0
20260504024054 50 224 6.0 8.0 0.00 0.00 0.00 58 1009.1
20260504023055 50 241 3.0 18.0 0.00 0.00 0.00 58 1009.3
20260504022054 49 242 18.0 18.0 0.00 0.00 0.00 58 1009.6
20260504021054 50 306 7.0 22.0 0.00 0.00 0.00 59 1009.7
20260504015054 51 269 9.0 16.0 0.00 0.00 0.00 51 1009.4
20260504014054 51 254 5.0 13.0 0.00 0.00 0.00 52 1009.3
20260504013055 51 271 9.0 14.0 0.00 0.00 0.00 52 1009.2
20260504012054 51 265 6.0 9.0 0.00 0.00 0.00 53 1009.2
20260504011054 50 247 7.0 8.0 0.00 0.00 0.00 54 1009.1
20260504010054 49 211 2.0 11.0 0.00 0.00 0.00 57 1009.0
20260504005054 49 211 3.0 9.0 0.00 0.00 0.00 59 1008.8
20260504004054 49 211 6.0 9.0 0.00 0.00 0.00 59 1008.6
20260504003054 48 199 3.0 6.0 0.00 0.00 0.00 61 1008.4
20260504001054 49 215 2.0 12.0 0.00 0.00 0.00 60 1008.5
20260504000054 49 225 4.0 8.0 0.00 0.00 0.00 61 1009.0
20260503235054 49 272 4.0 11.0 0.00 0.00 0.00 58 1009.1
20260503234054 49 262 6.0 18.0 0.00 0.00 0.00 57 1009.1
20260503233054 50 263 8.0 19.0 0.00 0.00 0.00 53 1009.1
20260503232054 51 262 4.0 11.0 0.00 0.00 0.00 48 1008.7
20260503230053 51 244 2.0 8.0 0.00 0.00 0.00 51 1008.4
20260503225054 51 252 1.0 10.0 0.00 0.00 0.00 48 1008.3
20260503224053 51 240 2.0 10.0 0.00 0.00 0.00 48 1008.3
20260503223053 51 246 5.0 10.0 0.00 0.00 0.00 47 1008.2
20260503222053 52 256 8.0 13.0 0.00 0.00 0.00 47 1008.3
20260503221054 52 277 6.0 15.0 0.00 0.00 0.00 45 1008.2
20260503220054 52 243 9.0 16.0 0.00 0.00 0.00 47 1008.4
20260503215053 51 247 10.0 16.0 0.00 0.00 0.00 48 1008.5
20260503214053 51 257 9.0 15.0 0.00 0.00 0.00 48 1008.5
20260503213053 52 259 6.0 15.0 0.00 0.00 0.00 48 1008.5
20260503210053 51 228 9.0 14.0 0.00 0.00 0.00 48 1008.6
20260503205053 50 288 11.0 21.0 0.00 0.00 0.00 50 1008.5
20260503204053 50 274 12.0 16.0 0.00 0.00 0.00 49 1008.6
20260503203053 50 262 12.0 16.0 0.00 0.00 0.00 50 1008.6
20260503202053 51 244 9.0 15.0 0.00 0.00 0.00 50 1008.8
20260503200053 50 281 9.0 17.0 0.00 0.00 0.00 51 1008.8
20260503195053 50 267 12.0 17.0 0.00 0.00 0.00 51 1009.0
20260503194053 49 248 8.0 17.0 0.00 0.00 0.00 52 1009.0
20260503193053 49 253 7.0 17.0 0.00 0.00 0.00 51 1009.1
20260503191053 50 248 4.0 17.0 0.00 0.00 0.00 46 1009.3
20260503190053 50 266 11.0 17.0 0.00 0.00 0.00 50 1009.5
20260503185053 49 240 10.0 19.0 0.00 0.00 0.00 49 1009.5
20260503184053 49 243 3.0 16.0 0.00 0.00 0.00 49 1009.6
20260503182053 49 252 11.0 16.0 0.00 0.00 0.00 44 1009.8
20260503181052 48 306 7.0 15.0 0.00 0.00 0.00 46 1009.9
20260503180053 48 273 10.0 25.0 0.00 0.00 0.00 49 1010.1
20260503174023 48 272 8.0 17.0 0.00 0.00 0.00 47 1010.3
20260503173053 48 306 16.0 16.0 0.00 0.00 0.00 47 1010.3
20260503172053 47 256 13.0 14.0 0.00 0.00 0.00 47 1010.4
20260503171053 46 277 3.0 14.0 0.00 0.00 0.00 48 1010.4
20260503081051 36 310 1.0 3.0 0.00 0.00 0.00 81 1010.8
20260503072050 36 307 1.0 4.0 0.00 0.00 0.00 82 1011.0
20260503071050 36 307 2.0 3.0 0.00 0.00 0.00 82 1010.9